[[{"header":{"parameterUnit":"m.s-1","parameterCategory":1,"la1":30.2991,"la2":30.254,"lo1":-89.0895,"lo2":-89.0444,"dy":0.0017,"dx":0.0017,"nx":28,"ny":28,"refTime":"2025-03-13T21:00:00:Z","depth":0,"parameterNumber":2,"parameterNumberName":"U-component_of_WINDS"},"data":[0,0,0,0,0,0,0,0,0,0,0,0,0,0,0,0,0,0,0,0,0,0,0,0,0,0,0,0,0,0,0,0,0,0,0,0,0,0,0,0,0,0,0,0,0,0,0,0,0,0,0,0,0,0,0,0,0,0,-3.7181,-3.7182,0,-3.7201,-3.7201,-3.7201,-3.7172,-3.7171,-3.717,-3.7169,-3.7189,-3.719,-3.7192,0,0,0,0,0,0,0,0,0,0,0,0,0,-3.712,-3.7121,-3.7181,-3.7182,-3.7182,-3.7201,-3.7201,-3.7202,-3.7172,-3.7171,-3.717,-3.7169,-3.7188,-3.719,-3.7192,0,0,0,0,0,0,0,0,0,0,0,0,0,-3.7144,-3.7122,-3.7181,-3.717,-3.7169,-3.7201,-3.7201,-3.7202,-3.7173,-3.7171,-3.717,-3.7168,-3.7188,-3.719,-3.7192,-3.7237,0,0,-3.7199,-3.72,0,0,0,0,0,0,0,0,-3.7142,-3.7146,-3.7171,-3.7171,-3.717,-3.7183,-3.7187,-3.7213,-3.7173,-3.7171,-3.7169,-3.7167,-3.7188,-3.719,-3.7197,-3.7238,-3.7238,-3.7199,-3.7201,-3.7202,-3.7202,0,0,0,0,0,0,0,-3.7141,-3.7145,-3.7189,-3.7172,-3.7171,-3.7164,-3.7166,-3.7192,-3.7188,-3.7171,-3.7169,-3.7172,-3.7187,-3.7195,-3.7197,-3.7239,-3.7199,-3.7201,-3.7203,-3.7203,-3.7317,-3.7319,0,0,0,0,0,0,-3.7141,-3.7144,-3.7189,-3.719,-3.7152,-3.7166,-3.7168,-3.718,-3.7188,-3.7187,-3.7173,-3.717,-3.7192,-3.7195,-3.7198,-3.725,-3.7202,-3.7204,-3.7205,-3.7316,-3.7318,-3.7319,0,0,0,0,0,0,-3.7139,-3.7145,-3.7188,-3.7166,-3.7171,-3.7169,-3.7183,-3.7181,-3.7189,-3.7189,-3.7188,-3.7182,-3.7191,-3.7195,-3.7227,-3.725,-3.7205,-3.7207,-3.7314,-3.7316,-3.7319,-3.7355,0,0,0,0,0,0,-3.7138,-3.7145,-3.7161,-3.7167,-3.7173,-3.7216,-3.7184,-3.7183,-3.7193,-3.7189,-3.7197,-3.7197,-3.719,-3.7224,-3.723,-3.7253,-3.7208,-3.7311,-3.7315,-3.7318,-3.7352,-3.7358,-3.7364,0,0,0,0,0,-3.7136,-3.717,-3.7162,-3.7167,-3.7193,-3.7218,-3.7221,-3.7213,-3.7195,-3.7211,-3.7212,-3.7196,-3.7248,-3.7228,-3.7234,-3.7258,-3.731,-3.7314,-3.7318,-3.7349,-3.7357,-3.7364,0,0,0,0,0,0,-3.7166,-3.7171,-3.7161,-3.7199,-3.7208,-3.7213,-3.7233,-3.7222,-3.7236,-3.7232,-3.7222,-3.7224,-3.7259,-3.7262,-3.724,-3.7302,-3.7276,-3.7281,-3.7298,-3.7305,-3.7312,-3.7309,-3.721,0,0,0,0,0,-3.7178,-3.7197,-3.72,-3.7233,-3.7238,-3.7235,-3.7246,-3.7239,-3.7248,-3.7252,-3.7255,-3.7264,-3.7283,-3.7295,-3.7311,-3.7353,-3.7354,-3.7373,-3.7379,-3.7384,-3.7388,-3.741,-3.7418,-3.7332,-3.7332,-3.7332,0,0,-3.72,-3.7205,-3.7218,-3.7239,-3.7246,-3.7266,-3.7239,-3.7262,-3.7277,-3.7255,-3.7286,-3.7289,-3.7299,-3.7336,-3.7353,-3.734,-3.7413,-3.7389,-3.7393,-3.7394,-3.7415,-3.7423,-3.743,-3.7335,-3.7334,-3.7334,0,0,-3.7253,-3.7259,-3.7287,-3.7294,-3.7305,-3.7303,-3.731,-3.7317,-3.7318,-3.7348,-3.7333,-3.7352,-3.7383,-3.7391,-3.7399,-3.7458,-3.7444,-3.7464,-3.7495,-3.7517,-3.7524,-3.753,-3.755,-3.7557,-3.7468,-3.7468,-3.7468,0,-3.728,-3.731,-3.7302,-3.7327,-3.7337,-3.7319,-3.7348,-3.7355,-3.7371,-3.7378,-3.7364,-3.7404,-3.741,-3.7449,-3.7463,-3.7471,-3.7478,-3.7461,-3.7524,-3.753,-3.7535,-3.7554,-3.7562,-3.747,-3.747,-3.747,-3.747,0,-3.7343,-3.7364,-3.7386,-3.7401,-3.7414,-3.744,-3.7437,-3.7451,-3.7444,-3.7444,-3.7476,-3.7483,-3.7501,-3.751,-3.7504,-3.7549,-3.754,-3.7526,-3.7499,-3.7546,-3.7563,-3.757,-3.7474,-3.7473,-3.7472,-3.7472,0,0,-3.7411,-3.7424,-3.7432,-3.7439,-3.7451,-3.7467,-3.7494,-3.7512,-3.7524,-3.7536,-3.7557,-3.7586,-3.7573,-3.7582,-3.7577,-3.7596,-3.7641,-3.7579,-3.7579,-3.7589,-3.7691,-3.77,-3.7709,-3.7634,-3.7635,-3.7636,-3.769,0,-3.7462,-3.7507,-3.7502,-3.7545,-3.7565,-3.755,-3.7573,-3.7583,-3.7584,-3.7602,-3.7604,-3.7624,-3.7605,-3.7611,-3.763,-3.7632,-3.7661,-3.7628,-3.7653,-3.7654,-3.7648,-3.7718,-3.7728,-3.7778,-3.7696,-3.7698,-3.7698,0,-3.7527,-3.7542,-3.7587,-3.7596,-3.7604,-3.7625,-3.7641,-3.7659,-3.767,-3.767,-3.7682,-3.7673,-3.77,-3.7676,-3.7713,-3.769,-3.7701,-3.7704,-3.7705,-3.7705,-3.7677,-3.7718,-3.7794,-3.7801,-3.7709,-3.7708,-3.7708,0,-3.7571,-3.7603,-3.7633,-3.764,-3.7652,-3.7667,-3.7673,-3.7683,-3.7695,-3.771,-3.7717,-3.7736,-3.7745,-3.776,-3.7757,-3.774,-3.7795,-3.777,-3.7795,-3.7795,-3.7805,-3.7804,-3.7881,-3.7815,-3.7815,-3.7815,-3.7815,0,-3.7627,-3.7655,-3.7653,-3.7672,-3.7703,-3.7698,-3.7729,-3.7733,-3.7743,-3.7762,-3.7752,-3.777,-3.7767,-3.7786,-3.7784,-3.7815,-3.7819,-3.782,-3.7818,-3.7819,-3.7819,-3.7824,-3.782,-3.7817,-3.7816,-3.7816,-3.7816,0,-3.768,-3.7681,-3.7713,-3.7723,-3.7726,-3.7748,-3.7756,-3.7774,-3.7776,-3.7801,-3.7807,-3.7809,-3.7831,-3.7831,-3.7856,-3.7855,-3.7892,-3.7888,-3.7887,-3.7886,-3.791,-3.7907,-3.7992,-3.8002,-3.7931,-3.7932,-3.7933,0,-3.7715,-3.7736,-3.7748,-3.776,-3.7767,-3.7788,-3.78,-3.7797,-3.781,-3.7826,-3.7842,-3.7863,-3.7879,-3.7915,-3.7919,-3.7939,-3.7934,-3.7962,-3.7936,-3.7937,-3.7932,-3.793,-3.7932,-3.7966,-3.7967,-3.7968,-3.7968,0,-3.7776,-3.7776,-3.7793,-3.7812,-3.7826,-3.7841,-3.7854,-3.7865,-3.7863,-3.7879,-3.7901,-3.7914,-3.794,-3.7961,-3.798,-3.7986,-3.7977,-3.7977,-3.7983,-3.7983,-3.7981,-3.7981,-3.7899,-3.7974,-3.7973,-3.7973,-3.7973,-3.7972,-3.782,-3.7838,-3.7849,-3.787,-3.788,-3.7893,-3.791,-3.7914,-3.7933,-3.7954,-3.7952,-3.7976,-3.7989,-3.8013,-3.8022,-3.8042,-3.8032,-3.8041,-3.8043,-3.8045,-3.8047,-3.7981,-3.8045,-3.8045,-3.8045,-3.8045,-3.8045,0,-3.7879,-3.7886,-3.7905,-3.7924,-3.794,-3.7932,-3.7946,-3.796,-3.7982,-3.7995,-3.8012,-3.8038,-3.8059,-3.8066,-3.8086,-3.8101,-3.8097,-3.8106,-3.8104,-3.8105,-3.8056,-3.8047,-3.8109,-3.8109,-3.8109,-3.8109,-3.8109,-3.8109,-3.7912,-3.7941,-3.7943,-3.7978,-3.7985,-3.8009,-3.8018,-3.8031,-3.8041,-3.807,-3.8088,-3.8092,-3.8103,-3.8124,-3.8143,-3.8145,-3.8152,-3.8163,-3.8162,-3.8115,-3.8109,-3.8103,-3.8094,-3.8165,-3.8165,-3.821,-3.821,-3.8211]},{"header":{"parameterUnit":"m.s-1","parameterCategory":1,"la1":30.2991,"la2":30.254,"lo1":-89.0895,"lo2":-89.0444,"dy":0.0017,"dx":0.0017,"nx":28,"ny":28,"refTime":"2025-03-13T21:00:00:Z","depth":0,"parameterNumber":3,"parameterNumberName":"V-component_of_WINDS"},"data":[0,0,0,0,0,0,0,0,0,0,0,0,0,0,0,0,0,0,0,0,0,0,0,0,0,0,0,0,0,0,0,0,0,0,0,0,0,0,0,0,0,0,0,0,0,0,0,0,0,0,0,0,0,0,0,0,0,0,4.8201,4.8202,0,4.8218,4.8219,4.8219,4.8215,4.8215,4.8214,4.8214,4.8229,4.8229,4.823,0,0,0,0,0,0,0,0,0,0,0,0,0,4.8164,4.8165,4.8201,4.8202,4.8202,4.8218,4.8219,4.8219,4.8215,4.8215,4.8214,4.8214,4.8229,4.8229,4.823,0,0,0,0,0,0,0,0,0,0,0,0,0,4.818,4.8165,4.8201,4.8202,4.8202,4.8218,4.8219,4.8219,4.8215,4.8215,4.8214,4.8214,4.8228,4.8229,4.823,4.8246,0,0,4.8233,4.8234,0,0,0,0,0,0,0,0,4.818,4.8182,4.8202,4.8202,4.8202,4.8214,4.8211,4.8228,4.8215,4.821,4.8214,4.8214,4.8224,4.8225,4.823,4.8246,4.8247,4.8233,4.8234,4.8234,4.8235,0,0,0,0,0,0,0,4.8178,4.8181,4.8208,4.8202,4.8202,4.8201,4.8203,4.8214,4.8219,4.8211,4.821,4.8213,4.8224,4.8229,4.823,4.8247,4.8233,4.8234,4.8235,4.8235,4.8279,4.828,0,0,0,0,0,0,4.8177,4.818,4.8207,4.8208,4.819,4.8202,4.8204,4.8211,4.8219,4.822,4.8213,4.8212,4.8227,4.8229,4.823,4.8251,4.8234,4.8235,4.8236,4.8279,4.8279,4.828,0,0,0,0,0,0,4.8177,4.818,4.8207,4.8194,4.8198,4.8203,4.8211,4.8211,4.8216,4.8221,4.8222,4.8217,4.8227,4.8229,4.8243,4.8251,4.8236,4.8237,4.8278,4.8279,4.828,4.829,0,0,0,0,0,0,4.8176,4.818,4.8186,4.8195,4.8198,4.8219,4.8211,4.8212,4.8218,4.8217,4.8225,4.8226,4.8227,4.8241,4.8244,4.8252,4.8238,4.8277,4.8279,4.828,4.8289,4.8291,4.8293,0,0,0,0,0,4.8174,4.8187,4.8186,4.8189,4.8206,4.822,4.8222,4.8224,4.8219,4.8225,4.8229,4.8225,4.8249,4.8242,4.8245,4.8254,4.8277,4.8278,4.8279,4.8288,4.8291,4.8293,0,0,0,0,0,0,4.8177,4.8188,4.8187,4.8203,4.8211,4.8219,4.8227,4.8226,4.8234,4.8233,4.8234,4.8236,4.825,4.8253,4.8245,4.827,4.8262,4.8264,4.8268,4.8271,4.8272,4.8272,4.8238,0,0,0,0,0,4.818,4.8191,4.8199,4.8212,4.8216,4.8221,4.8227,4.8228,4.8235,4.8238,4.8243,4.8249,4.8259,4.8264,4.8273,4.8289,4.8291,4.8297,4.8299,4.83,4.8302,4.8313,4.8316,4.8284,4.8284,4.8284,0,0,4.8185,4.8193,4.8199,4.8213,4.8219,4.823,4.8224,4.8235,4.8243,4.8239,4.8253,4.8257,4.8264,4.828,4.8287,4.8283,4.8311,4.8302,4.8303,4.8304,4.8314,4.8317,4.832,4.8285,4.8285,4.8285,0,0,4.8201,4.8207,4.822,4.8227,4.8237,4.824,4.8243,4.8252,4.8255,4.8269,4.8267,4.8276,4.8292,4.8298,4.8303,4.8323,4.8321,4.8325,4.8336,4.8346,4.8349,4.8351,4.836,4.8363,4.8327,4.8327,4.8327,0,4.8207,4.8224,4.8227,4.8239,4.8246,4.8244,4.8258,4.8263,4.8275,4.828,4.8275,4.8296,4.8301,4.8319,4.8324,4.8327,4.8331,4.8325,4.8348,4.8351,4.8353,4.8361,4.8364,4.8328,4.8328,4.8328,4.8328,0,4.8231,4.8243,4.8252,4.8265,4.8273,4.8285,4.829,4.8297,4.8297,4.8301,4.8316,4.8322,4.8333,4.8337,4.8336,4.8355,4.8353,4.8348,4.834,4.8356,4.8364,4.8367,4.8329,4.8328,4.8328,4.8328,0,0,4.8248,4.8265,4.8268,4.8275,4.8286,4.8295,4.8308,4.832,4.8327,4.8335,4.8346,4.836,4.8357,4.8363,4.8363,4.8372,4.8389,4.8367,4.8367,4.8372,4.8412,4.8416,4.842,4.8388,4.8388,4.8389,4.8412,0,4.8266,4.829,4.8294,4.8315,4.8327,4.8327,4.8338,4.8346,4.835,4.836,4.8364,4.8375,4.8369,4.8373,4.8381,4.8386,4.8398,4.8384,4.8399,4.8399,4.8398,4.8424,4.8428,4.8449,4.8415,4.8415,4.8416,0,4.829,4.8302,4.8324,4.8336,4.8341,4.8352,4.8364,4.8373,4.8383,4.8385,4.8393,4.8393,4.8406,4.8397,4.8416,4.8406,4.8412,4.8416,4.8417,4.8419,4.8409,4.8428,4.8456,4.846,4.842,4.842,4.8419,0,4.8303,4.8323,4.834,4.8346,4.836,4.8367,4.8373,4.8382,4.839,4.84,4.8405,4.8416,4.8422,4.8431,4.8434,4.8427,4.8453,4.8444,4.8456,4.8456,4.8462,4.8462,4.8493,4.8464,4.8464,4.8464,4.8463,0,4.8323,4.8337,4.8347,4.8357,4.8373,4.8377,4.8393,4.8399,4.8407,4.8419,4.8418,4.8428,4.8431,4.8442,4.8444,4.846,4.8463,4.8465,4.8466,4.8466,4.8466,4.8471,4.847,4.8464,4.8464,4.8464,4.8464,0,4.834,4.8347,4.8365,4.8378,4.8381,4.8393,4.8403,4.8414,4.8418,4.8433,4.8436,4.8443,4.8456,4.846,4.8475,4.8476,4.8496,4.8494,4.8494,4.8494,4.8506,4.8506,4.8543,4.8548,4.8514,4.8514,4.8515,0,4.8353,4.8365,4.8379,4.8388,4.8395,4.8408,4.8417,4.8421,4.843,4.8443,4.8451,4.8465,4.8476,4.8497,4.8503,4.8515,4.8514,4.8526,4.8516,4.8517,4.8516,4.8516,4.8518,4.8529,4.8529,4.8529,4.853,0,4.8376,4.838,4.8393,4.8408,4.8418,4.843,4.844,4.8447,4.8453,4.8463,4.8478,4.8486,4.8503,4.8517,4.8529,4.8535,4.8534,4.8533,4.8537,4.8538,4.8537,4.854,4.8501,4.8532,4.8532,4.8532,4.8531,4.8531,4.8393,4.8404,4.8417,4.8432,4.8441,4.8452,4.8463,4.847,4.8482,4.8498,4.8499,4.8515,4.8525,4.8543,4.8549,4.8561,4.8558,4.8562,4.8564,4.8565,4.8568,4.8535,4.8563,4.8563,4.8563,4.8563,4.8563,0,4.8417,4.8426,4.844,4.8457,4.8469,4.8468,4.848,4.849,4.8505,4.8516,4.8527,4.8545,4.8559,4.8566,4.858,4.8589,4.8589,4.8592,4.8592,4.8594,4.8569,4.8565,4.8592,4.8592,4.8592,4.8592,4.8592,4.8592,4.8432,4.8451,4.8456,4.8481,4.8489,4.8506,4.8514,4.8524,4.8533,4.8553,4.8565,4.8571,4.858,4.8595,4.8608,4.861,4.8615,4.862,4.8621,4.8598,4.8595,4.8592,4.8589,4.862,4.8621,4.8645,4.8646,4.8646]}]]